Location: Corona
(40.7470°N, 73.8601°W)
Time: 13:57:21
(UTC+00:00)

Daily predictions for brighter satellites

Satellite Brightness Start Highest point End
(mag) Time Altitude Azimuth Time Altitude Azimuth Time Altitude Azimuth
Cosmos 2219 3.5 23:13:19 10° S 23:18:49 48° ESE 23:24:19 10° NE
Meteor 2-9 Rocket 4.4 23:13:55 10° S 23:19:40 86° W 23:25:19 10° N
Cosmos 405 Rocket 4.2 23:17:56 10° SE 23:20:15 16° E 23:22:36 10° NE
USA 116 3.4 23:17:47 10° NNE 23:21:31 83° ESE 23:24:50 10° SSW
Cosmos 2297 Rocket 2.9 23:18:03 10° SSE 23:22:58 31° ESE 23:27:53 10° NE
Cosmos 1378 3.8 23:19:42 10° NNW 23:23:25 61° W 23:27:07 10° S
Okean 1 Rocket 3.1 23:21:00 10° S 23:25:16 60° E 23:29:34 10° NNE
Cosmos 1939 Rocket 3.4 23:23:15 10° SE 23:26:48 36° ENE 23:30:21 10° N
Cosmos 1025 Rocket 3.2 23:26:53 10° NNW 23:31:10 75° W 23:35:24 10° S
Orbus 7S? 4.1 23:28:55 10° SSW 23:32:37 61° SE 23:40:52 10° NE
Cosmos 1441 Rocket 3.2 23:29:00 10° S 23:32:48 87° W 23:36:35 10° N
FREGAT/IRIS 4.2 23:32:34 12° ESE 23:34:00 16° ENE 23:35:49 10° NNE
Aureole 1 Rocket 3.5 23:30:59 10° NNW 23:35:34 60° WSW 23:39:05 10° S
HJ-1C 4.1 23:36:03 10° SE 23:39:07 34° ENE 23:42:13 10° N
Cosmos 2074 Rocket 4.4 23:36:14 10° NNW 23:42:24 68° W 23:48:32 10° S
Cosmos 1190 Rocket 4.5 23:38:34 10° N 23:43:35 41° ENE 23:48:31 10° SE
Cosmos 389 Rocket 3.1 23:40:50 10° N 23:43:59 33° ENE 23:47:07 10° SE
H-2A R/B 3.5 23:42:18 13° E 23:44:42 18° ENE 23:48:02 10° NNE
CSL-04 Rocket 4.3 23:42:43 10° S 23:48:09 61° WSW 23:53:40 10° NNW
Cosmos 614 Rocket 4.2 23:43:25 10° N 23:48:29 49° ENE 23:53:28 10° SE
MONITOR-E 4.3 23:47:58 11° SE 23:50:28 40° ENE 23:53:07 10° N
Cosmos 2181 Rocket 4.4 23:45:59 10° SSE 23:51:44 41° E 23:57:36 10° NNE
YAOGAN 1 3.7 23:49:26 10° S 23:53:35 46° W 23:57:45 10° NNW
Cosmos 1544 4.3 23:51:15 10° SSW 23:54:42 44° W 23:58:11 10° N
Resurs 01 Rocket 3.7 23:55:33 11° ENE 23:55:33 11° ENE 23:56:47 10° NE
SAR-Lupe-2 3.8 23:52:16 10° NNE 23:55:43 44° E 23:59:06 10° S
